User: anonymous   Login
Location: Oshawa
(43.9000°N, 78.8670°W)
Time: 09:02:02
(UTC-05:00)
Language:

ITAMSAT 1 - Orbit

View from above orbital plane
View from above orbital plane
View from above satellite
View from above satellite

Ground track
Ground track

The orbit data is extracted from the following two-line orbital elements,

1 22826U 93061D   16342.89876112  .00000023  00000-0  26188-4 0  9991
2 22826  98.7791 300.5313 0009287 154.7494 205.4144 14.30305996210236
Epoch (UTC): 07 December 2016 21:34:12
Eccentricity: 0.0009287
inclination: 98.7791°
perigee height: 784 km
apogee height: 797 km
right ascension of ascending node: 300.5313°
argument of perigee: 154.7494°
revolutions per day: 14.30305996
mean anomaly at epoch: 205.4144°
orbit number at epoch: 21023

The dashed part of the orbit path shows where the satellite is in the earth's shadow,  

DLR